Temp
9 9 9 9 9 9 9 9 9 9 9 9 9 9 9 9 9 9 9 9 9 9 9 9 8 8 8 8 8 8 8 8 8 8 8 8 8 8 9 9 9 9 9 9 9 10 10 10 11 11 11 12 12 12 12 12 12 12 11 11 11 11 11 11 11 11 11 11 11
9 9 9 9 9 9 9 9 9 9 9 9 9 9 9 9 9 9 8 8 8 8 8 8 8 8 8 8 8 8 8 8 8 8 8 9 9 9 9 9 9 9 9 9 9 9 10 10 11 11 11 11 12 12 12 12 12 11 11 11 11 11 11 11 11 11 11 11 11
9 9 9 9 9 9 9 9 9 9 9 9 9 9 9 9 9 9 8 8 8 8 8 8 8 8 8 8 8 8 8 8 8 8 9 9 9 9 9 9 9 9 9 9 9 9 10 10 11 11 11 11 12 12 12 12 11 11 11 11 11 11 11 11 11 11 11 11 11
9 9 9 9 9 9 9 9 9 9 9 9 8 8 8 8 8 8 8 8 8 8 8 8 8 8 8 8 8 8 8 8 8 8 9 9 9 9 10 10 10 10 10 9 9 10 10 10 11 11 11 11 11 11 11 11 11 11 11 11 11 11 11 11 11 10 10 10 10
9 9 9 9 9 9 9 9 9 9 9 8 8 8 8 8 8 8 8 8 8 8 8 8 8 8 8 7 7 7 8 8 8 8 8 9 9 9 10 10 10 10 10 10 10 10 10 11 11 11 11 11 11 11 11 11 11 11 11 11 11 11 11 10 10 10 10 10 10
9 9 9 9 9 8 8 8 8 8 8 8 8 8 9 9 9 8 8 8 8 8 8 8 8 8 7 7 7 7 8 8 8 8 8 8 9 9 9 9 9 10 10 10 10 10 10 11 11 11 11 11 11 11 11 11 11 11 11 11 11 10 10 10 10 10 10 10 10
9 9 9 9 9 9 8 8 8 8 8 8 8 8 9 9 9 8 8 8 8 8 8 8 8 8 8 8 7 7 8 8 8 8 8 8 8 9 9 9 9 9 9 9 10 10 10 10 10 10 11 11 11 11 11 11 11 11 10 10 10 10 10 10 10 10 10 10 10
8 9 9 9 9 8 8 8 8 8 8 8 8 8 8 8 8 8 8 8 8 9 9 9 9 9 9 8 8 8 8 8 8 8 8 8 8 8 9 9 9 9 9 9 9 9 10 10 10 10 10 10 10 11 11 11 10 10 10 10 10 10 10 10 10 10 10 10 10
8 8 8 8 8 8 8 8 8 8 8 8 8 8 8 8 8 8 8 8 9 9 9 9 9 9 9 9 9 9 9 9 9 8 8 8 8 8 8 9 9 9 9 9 9 9 9 10 10 10 10 10 10 10 10 10 10 10 10 10 10 10 10 10 10 10 10 10 9
8 8 8 8 8 8 8 8 8 8 8 8 8 8 8 8 8 8 8 8 9 9 9 9 9 10 10 10 10 9 9 9 9 9 9 9 9 9 9 9 9 9 9 9 9 9 9 10 10 10 10 10 10 10 10 10 10 10 10 10 10 10 10 10 10 9 9 9 9
8 8 8 8 7 7 7 7 7 8 8 8 8 8 8 8 8 8 8 8 8 9 9 9 9 9 9 10 10 10 9 9 9 9 9 9 9 9 9 9 9 9 9 9 9 9 9 9 10 10 10 10 10 10 10 10 10 10 10 10 10 10 10 10 9 9 9 9 9
8 8 8 8 8 7 7 7 7 8 8 8 8 8 8 8 8 8 8 8 8 9 9 9 9 9 9 9 9 9 9 9 9 9 9 9 9 9 9 9 9 9 9 9 9 9 9 9 9 9 10 10 10 10 10 10 10 10 10 10 10 10 10 9 9 9 9 9 9
9 8 8 8 8 8 8 8 8 8 8 8 8 8 8 8 8 8 8 8 8 9 9 9 9 9 9 9 9 9 9 9 9 9 9 9 9 9 9 9 9 9 9 9 9 9 9 9 9 9 9 9 9 9 9 10 10 10 10 10 10 10 9 9 9 9 9 9 9
9 9 9 9 9 9 9 9 9 9 9 9 9 9 9 9 8 8 8 8 8 9 9 9 9 9 9 9 9 9 9 9 9 9 9 9 9 9 9 9 9 9 9 9 9 9 9 9 9 9 9 9 9 9 9 9 9 10 10 10 10 9 9 9 9 9 9 9 9
10 10 10 9 9 9 9 9 9 9 9 9 9 9 9 9 9 9 8 8 9 9 9 8 9 9 9 9 9 9 9 9 9 9 9 9 9 9 9 9 9 9 9 9 8 8 8 8 8 9 9 9 9 9 9 9 9 9 9 9 9 9 9 9 9 9 9 9 9
9 9 9 9 9 9 9 10 10 10 10 10 9 9 9 9 9 9 9 9 9 9 9 9 8 8 8 8 8 8 8 8 9 9 9 9 9 9 9 9 9 9 9 9 8 8 8 8 8 8 8 8 9 9 9 9 9 9 9 9 9 9 9 9 9 9 9 9 9
9 9 9 9 9 9 9 9 9 9 10 10 10 10 10 9 9 9 9 9 9 9 9 9 8 8 8 8 8 8 8 8 8 9 9 9 9 9 9 9 9 9 9 9 8 8 8 8 8 8 8 8 8 8 9 9 9 9 9 9 9 9 9 9 9 9 9 9 9
9 9 9 9 9 9 9 9 9 9 9 9 9 9 10 10 10 9 9 9 9 9 9 9 8 8 8 8 8 8 8 8 8 8 9 9 9 9 9 9 9 9 9 8 8 8 8 8 8 8 8 8 8 8 8 8 9 9 9 9 9 9 9 9 9 9 9 9 8
9 9 9 9 9 9 9 9 9 9 9 9 9 9 9 9 9 9 10 9 9 9 9 9 8 8 8 8 8 8 7 8 8 8 8 8 9 9 9 9 9 9 8 8 8 8 8 8 7 7 8 8 8 8 8 8 8 8 8 9 9 9 9 9 8 8 8 8 8
8 8 9 9 9 9 9 9 9 9 9 9 9 9 9 9 9 9 9 9 9 9 9 9 9 8 8 8 8 8 7 7 7 7 8 8 8 8 8 9 9 8 8 8 8 8 8 8 7 7 7 7 8 8 8 8 8 8 8 8 8 8 8 8 8 8 8 8 8
8 8 8 8 9 9 9 9 9 9 9 9 9 9 9 9 9 9 9 9 9 9 9 9 9 9 8 8 8 8 7 7 7 7 7 7 8 8 8 8 8 8 8 8 8 8 8 7 7 7 7 7 7 8 8 8 8 8 8 8 8 8 8 8 8 8 8 8 8
8 8 8 8 8 8 9 9 9 9 9 9 9 9 9 9 9 8 8 8 8 8 9 9 9 9 9 8 8 8 8 7 7 7 7 7 7 7 8 8 8 8 8 8 8 8 8 8 7 7 7 7 7 7 8 8 8 8 8 8 8 8 8 8 8 8 8 8 8
8 8 8 8 8 8 8 8 8 9 9 9 9 9 9 9 9 8 8 8 8 8 8 8 8 9 9 8 8 8 8 7 7 7 7 7 7 7 7 7 8 8 8 8 8 8 8 8 7 7 7 7 7 7 7 8 8 8 8 8 8 8 8 8 8 8 8 8 8
7 7 8 8 8 8 8 8 8 8 8 8 8 9 9 9 9 8 8 8 8 8 8 8 8 8 8 8 8 8 8 8 7 7 7 7 7 7 7 7 8 8 8 8 8 8 8 8 7 7 7 7 7 7 7 7 8 8 8 8 8 8 8 8 8 8 8 8 8
7 7 7 7 7 7 7 7 8 8 8 8 8 8 8 8 8 8 8 8 8 8 8 8 8 8 8 8 8 8 8 8 8 7 7 7 7 7 7 7 8 8 8 8 8 8 8 8 7 7 7 7 7 7 7 7 7 7 8 8 8 8 8 8 8 8 8 8 7
7 7 7 7 7 7 7 7 7 7 7 7 7 8 8 8 8 8 8 8 8 8 8 7 7 7 7 7 7 7 7 7 7 7 7 7 7 7 7 7 8 8 8 8 8 8 8 8 7 7 7 7 7 7 7 7 7 7 7 7 7 7 8 8 8 8 7 7 7
7 6 6 7 7 7 7 7 7 7 7 7 7 7 7 7 7 8 8 8 8 8 8 7 7 7 7 7 7 7 7 7 7 7 7 7 7 7 7 7 7 8 8 8 8 8 8 7 7 7 7 7 7 7 7 7 7 7 7 7 7 7 7 7 7 7 7 7 7
6 6 6 6 6 6 6 6 6 6 6 6 7 7 7 7 7 7 7 8 8 8 8 7 7 7 7 7 7 7 7 7 7 7 7 7 7 7 7 7 7 7 7 8 7 7 7 7 7 7 7 7 7 7 6 6 6 6 6 7 7 7 7 7 7 7 7 7 7
6 6 6 6 6 6 6 6 6 6 6 6 6 6 6 7 7 7 7 7 7 7 7 7 7 7 7 7 7 7 7 7 7 6 6 6 6 6 6 7 7 7 7 7 7 7 7 7 7 7 7 7 7 6 6 6 6 6 6 6 7 7 7 7 7 7 7 7 7
6 6 6 6 6 6 6 6 6 6 6 6 6 6 6 6 6 7 7 7 7 7 7 7 7 7 6 6 6 6 6 6 6 6 6 6 6 6 6 6 7 7 7 7 7 7 7 7 7 6 6 6 6 6 6 6 6 6 6 6 6 7 7 7 7 7 7 7 7
6 6 6 6 6 6 6 6 6 6 6 6 6 6 6 6 6 7 7 7 7 7 7 6 6 6 6 6 6 6 6 6 6 6 6 6 6 6 6 6 6 6 6 6 6 6 6 6 6 6 6 6 6 6 6 6 6 6 6 6 6 6 6 6 7 7 7 7 6
6 6 6 5 5 5 5 5 5 5 5 6 6 6 6 6 6 6 7 7 7 6 6 6 6 6 6 6 6 6 6 6 6 6 6 6 6 6 6 6 6 6 6 6 6 6 6 6 6 6 6 6 6 6 6 6 6 6 6 6 6 6 6 6 6 6 6 6 6
6 6 6 5 5 5 5 5 5 5 5 5 5 6 6 6 6 6 6 6 6 6 6 6 6 6 6 6 5 5 5 5 5 5 6 5 5 5 6 6 6 6 6 6 6 6 6 6 6 6 5 5 5 6 6 6 6 6 6 6 6 6 6 6 6 6 6 6 6
5 5 5 5 5 5 5 5 5 4 5 5 5 5 5 6 6 6 6 6 6 6 6 6 6 6 6 6 5 5 5 5 5 5 5 5 5 5 5 5 6 6 6 5 5 5 5 5 5 5 5 5 5 5 5 6 6 6 6 6 6 6 6 6 6 6 6 6 6
5 5 5 5 5 5 5 5 5 5 4 4 5 5 5 5 5 5 6 6 6 6 6 6 6 6 6 6 6 5 5 5 5 5 5 5 5 5 5 5 5 5 5 5 5 5 5 5 5 4 4 4 4 4 5 5 6 6 6 6 6 6 6 6 6 6 6 6 6
5 5 5 5 5 5 5 5 5 5 5 5 4 4 4 5 5 5 5 5 6 6 6 6 6 6 6 6 6 6 5 5 5 4 4 4 4 4 5 5 5 5 5 5 5 5 4 4 4 4 4 3 3 4 4 5 5 6 6 6 6 6 6 6 6 6 6 6 6
5 5 5 5 5 5 5 5 5 5 5 5 5 4 4 4 4 5 5 5 5 5 6 6 6 6 6 6 6 6 5 5 4 4 4 4 4 4 4 5 5 5 5 5 4 4 4 4 3 3 3 3 3 3 3 4 5 5 6 6 6 6 6 6 6 6 6 6 6
4 4 4 4 4 4 4 4 4 4 5 5 5 4 4 4 4 4 4 5 5 5 5 6 6 6 6 6 6 5 5 5 4 4 4 3 3 3 4 4 4 4 4 4 4 4 4 3 3 3 2 2 2 2 3 3 4 5 5 6 6 6 6 6 6 6 6 6 6
4 4 4 4 4 4 4 4 4 4 4 4 5 5 4 4 4 4 4 4 4 5 5 5 5 5 5 5 5 5 5 5 4 4 4 3 3 3 3 3 4 4 4 4 4 4 3 3 3 2 2 2 2 2 2 3 3 4 5 5 5 6 6 5 5 5 5 6 6
4 4 3 3 3 3 4 4 4 4 4 4 4 4 4 4 4 4 4 4 4 4 5 5 5 5 5 5 5 5 5 5 5 4 4 3 3 3 3 3 3 3 4 4 3 3 3 3 3 2 2 1 1 1 2 2 2 3 4 5 5 5 5 5 5 5 5 5 5
3 3 3 3 3 3 3 3 3 3 4 4 4 4 4 4 4 4 4 4 4 4 4 5 5 5 5 5 5 5 5 5 5 4 4 3 3 3 2 2 3 3 3 3 3 3 3 3 3 2 2 1 1 1 1 1 2 2 3 4 4 5 5 5 5 5 5 5 5
Height
1449 1449 1449 1450 1450 1451 1452 1452 1453 1453 1454 1455 1455 1455 1456 1456 1457 1457 1457 1458 1458 1458 1459 1459 1460 1461 1461 1462 1463 1463 1463 1464 1465 1466 1467 1467 1468 1469 1469 1470 1470 1470 1471 1472 1472 1473 1474 1474 1475 1476 1477 1478 1478 1479 1479 1480 1480 1480 1481 1482 1482 1483 1483 1483 1484 1485 1485 1486 1487
1448 1448 1449 1449 1450 1450 1451 1451 1452 1453 1453 1454 1454 1454 1455 1455 1455 1456 1456 1457 1457 1458 1458 1458 1459 1459 1460 1461 1461 1462 1462 1463 1463 1464 1465 1465 1466 1467 1467 1468 1468 1468 1469 1469 1470 1471 1472 1473 1474 1475 1476 1476 1477 1478 1478 1479 1479 1479 1480 1480 1481 1481 1482 1482 1483 1483 1484 1485 1485
1446 1447 1447 1448 1449 1449 1450 1451 1452 1452 1453 1453 1453 1454 1454 1454 1454 1455 1455 1456 1456 1457 1457 1458 1458 1458 1459 1459 1460 1460 1461 1461 1462 1462 1463 1464 1464 1465 1465 1466 1466 1467 1467 1468 1468 1469 1470 1471 1472 1473 1474 1475 1476 1476 1477 1477 1478 1478 1478 1479 1479 1480 1480 1481 1482 1482 1483 1483 1484
1444 1445 1446 1447 1448 1448 1449 1450 1451 1452 1452 1453 1453 1453 1453 1453 1453 1454 1454 1455 1455 1456 1456 1457 1457 1457 1458 1458 1458 1459 1459 1460 1460 1461 1461 1462 1463 1463 1463 1464 1464 1465 1465 1466 1467 1468 1469 1470 1471 1472 1473 1473 1474 1475 1475 1476 1476 1477 1477 1478 1478 1478 1479 1479 1480 1481 1481 1482 1483
1443 1444 1444 1445 1446 1447 1448 1448 1449 1450 1451 1451 1451 1452 1452 1452 1453 1453 1453 1453 1454 1454 1455 1455 1456 1456 1456 1457 1457 1458 1458 1459 1459 1459 1460 1460 1461 1462 1462 1462 1463 1463 1464 1465 1465 1466 1467 1468 1469 1470 1471 1472 1472 1473 1473 1474 1474 1475 1475 1476 1476 1477 1477 1478 1479 1479 1480 1481 1481
1442 1443 1443 1443 1444 1445 1446 1447 1447 1448 1449 1449 1450 1450 1450 1451 1451 1451 1452 1452 1453 1453 1453 1454 1454 1455 1455 1456 1456 1457 1457 1458 1458 1458 1458 1459 1459 1460 1460 1461 1461 1462 1463 1463 1464 1465 1465 1466 1467 1468 1469 1470 1471 1471 1472 1472 1473 1473 1474 1474 1475 1475 1476 1477 1477 1478 1478 1479 1480
1441 1442 1442 1442 1443 1443 1444 1444 1445 1446 1446 1447 1448 1448 1449 1449 1450 1450 1450 1451 1451 1452 1452 1453 1453 1453 1454 1454 1455 1456 1456 1456 1457 1457 1457 1458 1458 1458 1459 1459 1460 1461 1461 1462 1463 1463 1464 1465 1466 1467 1467 1468 1469 1469 1470 1471 1471 1472 1472 1473 1473 1474 1475 1475 1476 1477 1477 1478 1479
1441 1441 1441 1441 1442 1442 1443 1443 1443 1444 1444 1445 1445 1446 1447 1448 1448 1448 1449 1449 1449 1450 1450 1451 1451 1452 1453 1453 1454 1454 1455 1455 1456 1456 1456 1456 1457 1457 1457 1458 1458 1459 1460 1460 1461 1462 1463 1463 1464 1465 1466 1466 1467 1468 1468 1469 1469 1470 1470 1471 1472 1473 1473 1474 1475 1475 1476 1477 1477
1439 1440 1440 1440 1441 1441 1441 1442 1442 1442 1443 1443 1443 1444 1445 1446 1446 1446 1447 1448 1448 1448 1449 1449 1450 1450 1451 1452 1452 1453 1453 1454 1454 1454 1455 1455 1455 1456 1456 1457 1457 1458 1458 1459 1460 1460 1461 1462 1462 1463 1464 1464 1465 1466 1466 1467 1467 1468 1469 1469 1470 1471 1472 1473 1473 1474 1474 1475 1476
1438 1438 1439 1439 1439 1440 1440 1440 1440 1441 1441 1441 1442 1443 1443 1443 1444 1445 1445 1446 1446 1447 1447 1448 1448 1449 1449 1450 1451 1451 1452 1452 1453 1453 1453 1454 1454 1454 1455 1455 1456 1456 1457 1458 1458 1459 1459 1460 1461 1461 1462 1463 1463 1464 1464 1465 1466 1466 1467 1468 1468 1469 1470 1471 1472 1473 1473 1474 1475
1436 1437 1437 1438 1438 1438 1438 1438 1439 1439 1439 1440 1440 1441 1441 1442 1442 1443 1443 1444 1444 1444 1445 1446 1447 1447 1448 1448 1449 1450 1450 1451 1451 1452 1452 1452 1453 1453 1453 1454 1454 1455 1456 1456 1457 1457 1458 1458 1459 1460 1460 1461 1461 1462 1463 1463 1464 1464 1465 1466 1467 1468 1468 1469 1470 1471 1472 1472 1473
1435 1435 1436 1436 1436 1437 1437 1437 1437 1438 1438 1438 1438 1439 1439 1440 1440 1441 1441 1442 1442 1443 1443 1444 1445 1445 1446 1446 1447 1448 1448 1449 1449 1450 1450 1451 1451 1452 1452 1453 1453 1453 1454 1455 1455 1456 1456 1457 1457 1458 1459 1459 1460 1460 1461 1462 1462 1463 1464 1465 1465 1466 1467 1468 1468 1469 1470 1471 1472
1434 1435 1435 1435 1435 1435 1436 1436 1436 1436 1436 1437 1437 1438 1438 1438 1439 1439 1439 1439 1440 1441 1442 1442 1443 1443 1443 1444 1445 1446 1447 1447 1448 1448 1449 1449 1450 1450 1450 1451 1452 1452 1453 1453 1453 1454 1454 1455 1456 1456 1457 1458 1458 1459 1459 1460 1461 1462 1462 1463 1464 1464 1465 1466 1467 1468 1468 1469 1470
1433 1434 1434 1434 1434 1435 1435 1435 1435 1435 1435 1436 1436 1436 1437 1437 1437 1437 1438 1438 1438 1439 1439 1440 1440 1441 1441 1442 1443 1443 1444 1445 1446 1446 1447 1448 1448 1448 1449 1449 1450 1450 1451 1451 1452 1452 1453 1453 1454 1455 1455 1456 1457 1457 1458 1458 1459 1460 1461 1461 1462 1463 1464 1464 1465 1466 1466 1467 1468
1432 1433 1433 1433 1433 1433 1433 1434 1434 1434 1434 1435 1435 1435 1435 1435 1436 1436 1436 1436 1436 1437 1437 1438 1438 1438 1439 1440 1440 1441 1442 1442 1443 1444 1445 1445 1446 1447 1447 1448 1448 1448 1449 1449 1450 1450 1451 1452 1452 1453 1454 1454 1455 1455 1456 1457 1457 1458 1459 1460 1460 1461 1462 1463 1463 1464 1464 1465 1466
1431 1431 1432 1432 1432 1432 1432 1432 1433 1433 1433 1433 1433 1434 1434 1434 1434 1434 1434 1434 1434 1435 1435 1435 1436 1436 1437 1437 1438 1438 1439 1439 1440 1441 1442 1443 1443 1444 1445 1446 1446 1447 1447 1448 1448 1449 1449 1450 1451 1451 1452 1453 1453 1454 1454 1455 1456 1456 1457 1458 1459 1459 1460 1461 1461 1462 1462 1463 1464
1431 1431 1431 1431 1431 1431 1431 1431 1431 1431 1431 1431 1432 1432 1432 1432 1432 1432 1432 1433 1433 1433 1433 1433 1434 1434 1434 1435 1435 1436 1436 1437 1437 1438 1439 1440 1441 1442 1443 1443 1444 1445 1445 1446 1446 1447 1448 1448 1449 1449 1450 1451 1451 1452 1453 1453 1454 1454 1455 1456 1457 1457 1458 1459 1459 1460 1460 1461 1462
1430 1430 1430 1430 1430 1430 1430 1430 1430 1430 1430 1430 1430 1430 1430 1430 1430 1430 1430 1431 1431 1431 1431 1431 1431 1432 1432 1432 1433 1433 1433 1434 1434 1435 1436 1437 1438 1439 1440 1441 1442 1443 1443 1443 1444 1445 1446 1446 1447 1447 1448 1448 1449 1450 1450 1451 1452 1452 1453 1454 1455 1455 1456 1457 1457 1458 1458 1459 1460
1430 1430 1429 1429 1429 1428 1428 1428 1428 1428 1428 1428 1428 1428 1428 1428 1428 1428 1428 1429 1429 1429 1429 1429 1429 1429 1429 1429 1430 1430 1431 1431 1432 1432 1433 1434 1435 1436 1437 1438 1439 1440 1440 1441 1442 1443 1443 1444 1444 1445 1446 1446 1447 1448 1448 1449 1449 1450 1451 1452 1452 1453 1454 1454 1455 1456 1456 1457 1458
1429 1429 1428 1428 1428 1428 1427 1427 1427 1427 1427 1427 1427 1427 1427 1427 1427 1427 1427 1427 1427 1427 1427 1426 1427 1427 1427 1427 1428 1428 1428 1428 1429 1430 1430 1431 1432 1433 1434 1435 1436 1437 1438 1438 1439 1440 1441 1442 1442 1443 1443 1444 1444 1445 1446 1446 1447 1448 1448 1449 1450 1451 1452 1452 1453 1453 1454 1455 1455
1428 1428 1428 1427 1427 1427 1426 1426 1426 1425 1425 1425 1425 1425 1425 1425 1425 1425 1425 1425 1425 1425 1424 1424 1424 1424 1425 1425 1425 1425 1426 1426 1426 1427 1428 1428 1429 1430 1431 1432 1433 1434 1435 1436 1437 1437 1438 1439 1439 1440 1440 1441 1442 1442 1443 1444 1444 1445 1446 1447 1448 1448 1449 1450 1450 1451 1452 1453 1453
1428 1428 1427 1427 1426 1426 1425 1425 1424 1424 1424 1423 1423 1423 1423 1423 1423 1423 1423 1423 1423 1423 1422 1422 1423 1423 1423 1423 1423 1423 1423 1423 1423 1424 1425 1426 1426 1427 1428 1429 1430 1431 1432 1433 1434 1435 1435 1436 1437 1437 1438 1438 1439 1440 1440 1441 1442 1443 1443 1444 1445 1446 1447 1447 1448 1449 1449 1450 1451
1427 1427 1426 1426 1425 1425 1424 1424 1423 1423 1422 1422 1422 1422 1421 1421 1421 1421 1421 1421 1421 1420 1420 1420 1421 1421 1420 1420 1420 1420 1420 1421 1421 1421 1422 1423 1423 1424 1425 1426 1427 1428 1429 1430 1431 1432 1433 1433 1434 1435 1435 1436 1437 1437 1438 1439 1439 1440 1441 1442 1443 1443 1444 1445 1446 1447 1448 1448 1449
1426 1425 1425 1425 1424 1424 1423 1423 1422 1422 1421 1421 1420 1420 1420 1419 1419 1419 1419 1419 1419 1418 1418 1418 1418 1418 1418 1418 1418 1418 1418 1418 1418 1419 1419 1420 1421 1422 1422 1423 1424 1425 1426 1427 1428 1429 1430 1431 1432 1432 1433 1433 1434 1435 1435 1436 1437 1438 1438 1439 1440 1441 1442 1443 1443 1444 1445 1446 1447
1424 1424 1424 1423 1423 1423 1422 1422 1421 1420 1420 1419 1419 1418 1418 1418 1418 1417 1417 1417 1417 1417 1416 1416 1416 1416 1416 1416 1416 1416 1416 1416 1416 1416 1417 1418 1418 1419 1419 1420 1421 1422 1423 1424 1426 1427 1428 1428 1429 1430 1430 1431 1432 1433 1433 1434 1434 1435 1436 1437 1438 1439 1439 1440 1441 1442 1443 1444 1445
1423 1423 1423 1422 1422 1421 1421 1420 1419 1419 1418 1418 1417 1417 1417 1416 1416 1416 1415 1415 1415 1415 1414 1414 1414 1414 1414 1414 1413 1413 1413 1413 1414 1414 1414 1415 1416 1416 1417 1418 1418 1419 1421 1422 1423 1424 1425 1426 1427 1428 1428 1429 1430 1430 1431 1432 1433 1433 1434 1435 1436 1436 1437 1438 1439 1440 1441 1442 1443
1422 1422 1421 1421 1420 1420 1419 1419 1418 1417 1417 1416 1415 1415 1415 1414 1414 1414 1414 1413 1413 1413 1413 1412 1412 1412 1412 1411 1411 1411 1411 1412 1412 1412 1412 1413 1413 1414 1414 1415 1416 1417 1418 1420 1421 1422 1423 1424 1425 1425 1426 1427 1428 1428 1429 1430 1430 1431 1432 1433 1433 1434 1435 1436 1437 1438 1439 1440 1440
1420 1420 1419 1419 1419 1418 1418 1417 1416 1415 1414 1414 1413 1413 1413 1413 1413 1412 1412 1412 1411 1411 1411 1410 1410 1410 1410 1409 1409 1409 1409 1409 1410 1410 1410 1410 1411 1411 1412 1413 1413 1415 1416 1418 1419 1420 1421 1422 1422 1423 1424 1424 1425 1426 1427 1428 1428 1429 1430 1430 1431 1432 1433 1433 1434 1435 1436 1437 1438
1418 1418 1417 1417 1417 1416 1416 1415 1414 1413 1413 1412 1412 1412 1412 1411 1411 1411 1410 1410 1409 1409 1408 1408 1408 1408 1408 1407 1407 1407 1407 1407 1408 1408 1408 1408 1408 1408 1409 1410 1411 1413 1414 1415 1416 1417 1418 1419 1420 1421 1421 1422 1423 1424 1424 1425 1426 1427 1427 1428 1429 1429 1431 1432 1433 1433 1434 1435 1436
1416 1415 1415 1414 1414 1414 1413 1413 1412 1411 1411 1411 1410 1410 1410 1409 1409 1409 1408 1408 1407 1407 1406 1406 1405 1405 1405 1405 1405 1405 1405 1405 1405 1405 1405 1405 1406 1406 1407 1408 1409 1410 1411 1413 1414 1415 1416 1417 1418 1418 1419 1419 1420 1421 1422 1423 1423 1424 1425 1426 1427 1428 1428 1429 1430 1431 1432 1433 1433
1414 1413 1413 1412 1412 1411 1411 1411 1410 1410 1409 1409 1409 1408 1408 1408 1407 1407 1406 1406 1405 1404 1404 1403 1403 1403 1403 1403 1403 1403 1402 1402 1403 1403 1403 1403 1403 1404 1404 1405 1406 1408 1409 1410 1411 1412 1413 1414 1415 1416 1417 1417 1418 1418 1419 1420 1421 1422 1423 1424 1425 1426 1427 1427 1428 1429 1429 1430 1431
1411 1411 1410 1409 1409 1408 1408 1408 1408 1408 1408 1407 1407 1407 1406 1406 1405 1405 1404 1403 1403 1402 1402 1401 1401 1400 1400 1400 1400 1400 1400 1400 1400 1400 1400 1400 1401 1401 1402 1403 1404 1405 1406 1408 1409 1410 1411 1412 1413 1413 1414 1415 1415 1415 1417 1418 1419 1420 1420 1421 1423 1423 1424 1425 1425 1426 1427 1427 1428
1409 1408 1408 1407 1406 1406 1405 1405 1405 1405 1405 1405 1405 1404 1404 1403 1403 1402 1402 1401 1400 1400 1399 1399 1398 1398 1398 1398 1398 1397 1397 1397 1397 1397 1398 1398 1398 1399 1399 1400 1401 1402 1403 1405 1406 1407 1408 1409 1410 1411 1412 1412 1413 1413 1413 1415 1416 1417 1418 1419 1420 1421 1421 1422 1423 1423 1424 1425 1425
1407 1406 1405 1404 1403 1403 1403 1403 1403 1403 1403 1402 1402 1402 1402 1401 1401 1400 1399 1398 1398 1397 1397 1396 1396 1396 1395 1395 1395 1395 1395 1395 1395 1395 1395 1395 1395 1396 1396 1397 1398 1399 1401 1402 1403 1404 1405 1407 1408 1408 1409 1410 1410 1410 1410 1411 1413 1413 1415 1416 1417 1418 1418 1419 1420 1421 1421 1422 1423
1404 1403 1402 1402 1401 1401 1400 1400 1400 1400 1400 1399 1399 1399 1399 1399 1398 1398 1397 1396 1395 1394 1394 1393 1393 1393 1393 1393 1393 1392 1392 1392 1392 1393 1393 1393 1393 1393 1393 1394 1395 1396 1398 1399 1400 1401 1403 1404 1405 1406 1406 1407 1407 1407 1407 1408 1409 1410 1411 1413 1413 1414 1415 1416 1417 1418 1418 1419 1420
1402 1401 1400 1399 1398 1398 1398 1398 1398 1397 1397 1397 1397 1397 1397 1396 1396 1395 1395 1394 1393 1392 1391 1391 1391 1391 1390 1390 1390 1390 1390 1390 1390 1390 1390 1390 1390 1390 1390 1391 1392 1393 1395 1396 1397 1398 1399 1401 1402 1403 1403 1404 1404 1404 1404 1404 1405 1407 1408 1409 1410 1411 1412 1413 1414 1415 1416 1417 1418
1398 1398 1397 1396 1396 1396 1395 1395 1395 1394 1394 1394 1394 1394 1394 1393 1393 1393 1392 1391 1390 1389 1388 1388 1388 1388 1388 1388 1387 1387 1387 1388 1388 1388 1388 1387 1387 1387 1388 1388 1389 1390 1392 1393 1394 1395 1396 1397 1398 1399 1400 1401 1401 1401 1401 1401 1402 1403 1404 1406 1407 1408 1409 1410 1411 1412 1413 1414 1415
1396 1395 1394 1394 1393 1393 1393 1392 1392 1392 1391 1391 1391 1391 1391 1391 1390 1390 1389 1389 1388 1386 1385 1385 1385 1385 1385 1385 1385 1384 1384 1385 1385 1385 1385 1385 1384 1384 1385 1385 1386 1387 1388 1389 1390 1392 1393 1394 1395 1396 1397 1397 1398 1398 1398 1398 1399 1400 1401 1403 1404 1405 1406 1408 1408 1409 1410 1412 1413
1393 1392 1392 1391 1390 1390 1390 1389 1389 1389 1389 1388 1388 1388 1388 1388 1388 1387 1387 1386 1385 1384 1383 1382 1382 1382 1382 1382 1382 1382 1382 1382 1382 1382 1382 1382 1382 1382 1382 1382 1383 1383 1385 1386 1387 1388 1389 1390 1392 1393 1394 1394 1395 1395 1396 1396 1397 1397 1398 1399 1401 1402 1403 1404 1406 1407 1408 1409 1410
1389 1389 1388 1388 1388 1387 1387 1387 1386 1386 1386 1386 1386 1385 1385 1385 1385 1384 1384 1383 1383 1381 1380 1379 1379 1379 1379 1379 1379 1378 1378 1379 1379 1379 1379 1379 1379 1380 1379 1379 1379 1380 1381 1382 1383 1384 1386 1387 1388 1389 1390 1391 1392 1393 1393 1393 1394 1395 1396 1397 1398 1399 1400 1402 1403 1404 1405 1406 1408
1387 1386 1385 1385 1385 1384 1384 1384 1383 1383 1383 1383 1383 1383 1382 1382 1382 1381 1381 1381 1380 1379 1378 1377 1376 1376 1376 1376 1376 1376 1375 1376 1376 1376 1377 1377 1377 1377 1377 1377 1377 1377 1378 1379 1380 1381 1382 1383 1385 1386 1387 1388 1389 1390 1390 1391 1392 1392 1393 1394 1395 1397 1398 1399 1400 1401 1403 1404 1405
Wind_Speed
15 16 16 16 16 16 16 16 16 16 15 15 15 15 15 14 14 14 13 12 12 11 11 11 11 11 11 11 12 13 14 16 16 17 17 18 18 19 20 21 21 22 22 22 22 21 21 20 20 20 21 21 21 21 21 20 20 20 20 19 19 18 18 18 18 18 19 19 20
14 15 15 16 16 17 16 16 16 16 16 15 15 15 15 15 15 14 14 13 13 12 12 12 12 11 11 12 12 14 15 16 16 17 17 17 17 18 18 18 19 20 20 21 21 21 21 21 21 21 21 21 21 22 22 22 21 21 20 19 19 18 18 18 18 19 19 20 20
12 13 14 15 16 16 16 16 16 16 15 15 15 15 15 15 15 15 15 14 14 14 14 14 13 13 13 13 13 14 15 16 17 17 18 18 18 17 17 18 18 18 19 19 20 20 21 21 22 22 22 23 23 23 23 23 22 22 21 20 20 19 19 19 19 19 20 20 21
11 12 12 13 14 15 15 15 16 16 16 16 16 16 16 16 16 16 15 15 15 15 15 15 14 14 14 14 15 15 16 17 18 18 18 18 18 18 18 18 18 18 18 19 20 20 21 22 23 23 23 24 24 24 24 23 23 22 22 21 20 20 20 20 20 20 21 21 21
10 11 11 12 12 13 14 14 15 15 16 16 16 17 17 16 16 16 16 16 15 15 15 15 15 16 16 16 16 16 17 18 19 19 19 19 19 19 19 19 18 18 19 19 20 21 22 23 23 24 24 24 24 24 24 24 23 23 22 21 21 21 21 20 21 21 21 21 21
9 10 10 11 11 12 12 13 14 14 15 16 17 17 17 17 17 17 17 16 15 15 15 15 16 16 16 17 17 17 18 19 20 20 20 20 20 20 20 19 19 19 19 19 20 21 22 23 23 24 24 24 24 24 24 24 23 23 22 22 22 21 21 21 21 21 21 21 21
9 9 9 10 10 11 11 12 13 13 14 15 16 16 16 17 17 17 17 16 16 15 15 15 15 16 16 17 17 18 19 19 20 21 21 21 20 20 20 19 19 19 19 19 20 20 21 22 23 23 23 23 23 23 24 23 23 23 22 22 22 21 21 21 21 21 21 21 21
10 10 10 10 10 11 11 11 12 13 14 14 15 15 15 16 17 17 17 17 17 16 16 16 16 16 16 16 17 18 19 19 20 21 21 21 21 20 20 19 19 19 19 19 20 20 21 21 22 22 22 23 23 23 23 23 23 23 22 22 22 21 21 21 21 21 21 21 21
11 11 11 11 11 11 12 12 12 13 14 14 14 14 15 15 16 16 16 17 17 17 17 17 16 16 16 16 16 17 18 19 20 20 21 21 21 20 20 20 19 19 19 20 20 20 21 21 22 22 22 22 22 23 23 23 23 23 23 22 22 22 22 21 21 21 21 21 21
11 11 12 12 12 12 13 13 13 14 14 14 14 14 14 15 15 15 16 16 17 17 18 17 17 16 16 16 16 16 17 18 19 20 20 21 21 20 20 20 20 20 20 20 21 21 22 22 22 22 22 22 22 23 23 23 23 23 23 22 22 22 22 22 22 22 22 22 22
9 10 11 12 12 13 13 14 14 14 15 15 15 15 15 15 15 16 16 17 17 18 18 17 17 17 17 17 16 16 16 17 18 19 20 21 21 21 21 20 21 21 21 21 22 22 23 23 23 23 23 23 23 23 23 24 24 23 23 22 22 22 22 22 22 22 22 22 22
8 9 10 11 11 12 13 14 14 15 15 16 16 16 16 16 16 17 17 18 18 18 18 18 19 19 19 18 18 17 17 17 18 19 20 20 21 21 21 21 22 22 22 22 23 23 24 24 24 24 23 23 23 23 23 24 24 24 23 23 23 23 22 22 23 23 23 23 22
8 9 10 10 11 12 13 14 15 15 16 16 17 17 17 17 17 18 19 19 19 19 19 19 20 21 21 20 20 19 19 19 19 19 20 20 21 21 22 22 22 23 23 23 24 24 25 25 24 24 24 24 24 24 23 24 24 24 24 23 23 23 23 23 23 23 23 23 23
10 10 10 11 12 13 14 15 16 16 17 18 18 18 18 19 19 19 20 20 21 20 21 21 22 22 22 22 22 22 22 22 21 21 21 21 21 22 22 23 23 23 24 24 25 25 25 25 25 25 24 24 24 24 24 24 24 24 24 24 24 23 23 23 23 23 23 23 23
10 10 11 11 12 13 14 15 16 17 18 18 19 19 20 20 21 21 21 22 22 22 22 23 23 23 23 24 24 24 24 24 24 23 23 22 22 22 23 23 24 24 25 25 25 26 26 26 25 25 24 24 24 24 24 24 24 24 24 24 24 24 24 24 24 24 24 23 23
10 10 10 11 12 12 13 14 15 16 17 18 19 20 21 22 23 23 23 24 24 24 24 25 25 25 25 25 26 26 26 26 26 26 26 25 24 24 24 24 24 25 25 26 26 26 26 26 25 25 25 24 24 24 24 25 25 25 25 25 24 24 24 24 24 24 24 24 23
10 10 10 11 11 12 12 13 14 14 15 16 17 19 20 22 23 24 25 26 26 26 27 27 26 26 26 27 27 27 27 28 28 28 28 27 26 26 25 25 25 26 26 27 27 27 27 26 26 25 25 25 25 25 25 25 25 25 25 25 25 25 25 25 25 25 25 24 24
11 10 10 10 10 11 11 12 12 13 14 15 16 17 19 20 22 24 25 27 28 28 29 29 28 28 28 28 28 28 28 29 29 30 30 29 29 28 28 27 27 27 27 27 27 27 27 26 26 26 25 25 25 26 26 26 26 26 26 26 26 25 25 25 25 25 25 24 24
12 11 11 10 10 10 10 11 11 12 13 14 15 16 17 19 20 22 24 25 27 29 29 30 30 30 30 29 29 29 29 29 30 30 31 31 31 31 30 29 28 28 28 28 28 28 27 27 26 26 26 26 26 27 27 27 27 27 27 26 26 26 26 25 25 25 25 25 24
13 12 12 11 11 11 11 11 11 12 12 13 14 15 17 18 19 20 22 23 25 27 29 30 31 31 31 31 31 30 30 30 30 30 31 31 32 32 32 31 30 29 29 29 29 28 28 27 27 27 27 27 27 27 28 28 28 28 27 27 27 26 26 26 25 25 25 25 25
15 14 13 13 12 12 12 12 12 12 13 13 14 15 16 17 18 19 20 21 23 25 27 29 30 31 32 32 32 32 31 31 31 31 31 31 32 32 32 32 31 31 30 30 30 29 29 28 28 28 28 28 28 28 28 28 28 28 28 28 27 27 26 26 26 26 25 25 25
17 16 16 15 15 14 14 14 13 14 14 14 15 15 16 17 18 19 20 21 22 23 25 27 29 30 32 32 33 33 32 32 32 31 31 31 32 32 32 32 32 32 31 31 31 30 30 30 29 29 29 29 29 29 29 29 29 29 29 28 28 27 27 27 26 26 26 26 26
18 18 18 17 17 17 16 16 16 16 16 16 16 16 17 17 18 19 20 21 22 23 23 25 26 29 31 32 33 33 33 33 33 33 32 32 32 32 32 32 32 33 32 32 31 31 31 31 30 30 30 30 30 30 30 30 30 30 29 29 29 28 28 27 27 27 26 26 26
19 19 19 19 19 19 18 18 18 18 17 17 18 18 18 19 19 19 20 21 22 23 23 24 25 27 29 31 33 33 34 34 34 34 33 33 33 33 33 33 33 33 33 33 32 32 32 32 31 31 31 31 31 31 31 31 31 30 30 30 29 29 29 28 28 27 27 27 27
18 19 20 20 20 20 20 19 19 19 19 19 19 19 20 20 20 20 21 21 22 22 23 23 24 25 27 29 32 33 34 34 34 34 34 34 34 33 33 34 34 34 34 34 33 33 33 33 33 32 32 32 32 32 32 32 31 31 31 31 30 30 30 29 29 28 28 28 28
17 18 19 20 20 21 21 21 20 20 20 20 20 21 21 21 22 22 22 22 22 22 23 23 24 24 26 28 30 32 34 34 35 35 34 34 34 34 34 35 35 35 35 34 34 34 34 34 34 33 33 33 33 32 32 32 32 32 32 32 31 31 30 30 29 29 28 28 28
17 18 19 19 20 21 21 21 21 21 21 21 21 22 22 23 23 23 23 23 23 23 23 23 24 24 25 26 28 30 32 34 35 35 35 35 35 35 35 35 35 35 35 35 35 34 34 34 34 34 34 34 34 33 33 33 33 33 32 32 32 32 31 31 30 29 29 29 28
17 18 18 19 20 21 21 22 22 22 23 23 23 23 23 23 24 24 24 24 24 24 24 23 23 23 24 25 27 29 31 32 34 35 35 35 35 35 35 35 36 36 36 35 35 35 35 35 35 35 35 35 34 34 34 34 33 33 33 33 32 32 32 31 30 30 29 29 29
18 18 19 20 20 21 22 22 23 24 24 24 24 24 24 24 24 25 25 25 25 25 24 24 23 23 24 25 26 27 28 31 32 34 35 35 35 36 36 36 36 36 36 35 35 35 35 35 35 35 35 35 35 35 35 34 34 34 33 33 33 32 32 31 31 30 30 30 29
19 19 20 20 21 21 22 22 23 24 25 25 26 26 26 25 25 25 25 26 26 26 25 25 24 24 24 24 24 25 26 28 30 32 34 35 35 36 36 36 36 36 36 35 35 35 35 35 35 35 35 36 36 35 35 35 34 34 34 33 33 33 32 31 31 31 30 30 30
20 20 20 21 21 21 21 22 23 24 25 26 27 27 27 26 26 25 25 26 27 27 27 26 26 25 24 24 24 24 25 26 28 30 32 34 35 36 36 36 36 36 36 35 35 35 35 35 35 35 35 35 36 36 35 35 34 34 34 34 33 32 32 31 31 31 30 30 30
21 21 21 21 21 21 21 21 22 23 24 26 27 27 27 27 26 26 25 26 26 27 28 28 27 26 25 24 24 23 24 24 26 28 30 32 33 34 35 36 36 36 36 35 35 35 35 35 34 34 34 34 35 36 35 35 34 34 34 33 33 32 32 32 31 31 31 30 30
22 22 22 22 22 22 21 21 21 22 23 24 26 27 28 27 27 26 25 25 26 27 28 28 28 27 26 25 24 23 23 23 24 25 27 29 31 33 34 35 36 36 35 35 35 35 35 34 34 34 34 34 34 35 35 35 35 34 34 33 33 33 32 32 32 31 31 31 31
25 24 24 23 23 23 22 21 21 22 22 24 25 26 27 27 27 26 26 25 25 26 27 28 28 28 27 26 25 25 24 24 24 24 25 27 29 31 33 34 35 35 35 35 35 34 34 34 34 34 34 34 34 35 35 35 35 34 34 34 33 33 32 32 32 32 31 31 31
28 27 26 26 25 24 24 23 22 22 23 23 24 25 26 27 27 27 26 26 26 26 27 28 28 28 28 28 27 26 25 25 24 24 24 25 27 29 31 33 34 35 35 34 34 34 34 34 34 34 34 34 34 35 35 36 35 35 34 34 33 33 33 32 32 32 32 31 31
31 30 30 29 28 27 27 26 25 24 24 24 25 25 26 27 27 27 27 26 26 27 27 27 28 28 28 28 28 27 26 25 24 23 23 24 25 27 29 31 33 33 34 34 34 34 34 34 34 34 34 34 34 35 36 36 36 35 34 34 33 33 33 32 32 32 32 32 32
33 32 32 32 31 31 30 29 28 28 27 26 26 26 26 26 27 27 27 27 27 27 27 27 28 28 28 28 28 27 27 25 24 23 23 24 25 26 28 29 31 32 33 33 33 33 33 33 33 33 34 34 35 35 36 36 36 35 35 34 33 33 32 32 32 32 32 32 32
33 33 33 33 33 33 32 32 31 30 30 29 28 27 26 26 27 27 27 27 27 27 27 28 28 28 28 28 27 27 27 26 25 24 24 24 24 25 26 27 29 30 31 32 32 32 33 33 33 33 33 34 35 35 36 36 36 35 35 34 33 33 32 32 32 32 32 32 32
34 33 33 33 33 33 33 33 33 32 32 31 30 29 27 26 26 27 27 28 28 28 28 28 28 28 28 27 27 27 27 27 26 25 25 24 24 24 25 26 27 28 29 30 31 31 32 32 32 32 33 34 34 35 35 36 36 35 35 34 33 33 32 32 32 32 32 32 31
34 34 33 33 32 32 32 32 32 32 32 32 32 31 29 27 26 26 27 28 28 28 28 28 28 28 28 27 27 27 27 27 27 27 25 24 24 23 24 25 26 27 28 28 29 30 30 31 31 31 32 33 34 34 35 35 35 35 35 34 33 33 32 32 32 32 31 31 31
34 34 34 33 33 32 31 31 31 31 31 31 31 31 30 28 27 26 27 27 28 28 28 28 28 28 28 27 27 27 28 28 28 27 26 24 23 23 23 24 25 25 26 27 28 29 29 30 30 30 31 31 32 33 34 35 35 35 35 34 33 33 32 32 32 31 31 31 30
Wind_Direction
252 251 250 249 248 247 246 246 246 247 247 246 245 245 244 244 243 242 241 240 240 238 237 236 235 235 236 239 243 247 249 250 250 250 250 250 250 250 249 249 249 248 247 247 248 250 252 254 254 253 252 251 249 249 248 248 247 247 247 246 246 246 247 246 247 247 248 249 249
256 255 254 253 252 252 251 250 249 250 250 250 249 248 247 247 246 246 245 245 244 244 242 241 239 238 237 238 240 243 246 248 250 250 251 252 252 252 252 252 252 250 248 246 246 247 249 251 251 251 250 250 249 248 248 248 248 248 248 248 248 248 247 247 247 247 248 248 249
263 260 259 257 257 256 255 255 254 254 254 253 253 251 251 250 250 249 249 249 248 247 247 246 245 243 241 240 240 241 243 245 247 249 250 251 252 252 252 251 251 250 248 246 244 244 245 247 247 247 247 247 246 246 246 247 247 247 247 247 247 246 246 245 245 246 246 247 247
270 267 265 263 261 260 259 259 258 257 256 256 255 255 254 254 253 253 253 252 251 250 250 250 249 247 245 244 243 243 244 245 246 247 249 250 251 252 252 251 249 247 245 243 242 241 241 242 243 243 243 243 243 243 244 244 245 245 245 244 244 243 243 243 243 244 244 244 245
279 275 272 269 266 264 262 261 259 258 257 256 256 256 256 256 257 257 257 256 254 253 252 251 250 248 247 245 246 246 247 247 247 248 248 249 250 251 252 251 249 247 244 242 240 239 239 239 240 240 240 241 241 241 242 242 243 243 243 243 242 242 241 241 241 241 242 242 243
288 283 279 276 273 269 266 264 262 260 257 256 255 255 256 257 259 260 260 259 256 254 252 250 250 249 247 246 247 248 250 250 250 250 249 249 249 249 250 251 250 248 246 244 242 240 239 239 239 239 239 240 241 241 241 242 243 243 243 243 242 242 241 240 240 240 241 241 241
293 290 286 283 280 276 273 270 267 264 261 258 256 255 255 257 258 259 260 258 256 254 251 250 248 247 246 245 246 248 249 251 251 251 251 250 249 249 249 249 249 248 247 246 245 243 242 241 240 240 240 241 241 242 243 243 244 244 244 243 243 243 242 241 240 240 241 241 240
290 290 290 289 286 283 280 277 274 270 267 263 260 258 257 257 257 257 256 255 254 254 253 251 248 246 244 243 243 244 246 248 249 250 250 250 249 249 249 249 249 248 248 248 247 246 245 244 243 242 242 242 243 243 244 244 245 245 245 244 244 244 243 242 242 241 241 241 240
283 285 287 287 286 286 284 282 279 277 274 270 268 265 262 260 258 256 254 253 253 253 253 253 251 249 247 245 243 243 243 244 245 246 247 247 248 248 248 248 248 248 248 248 248 248 247 246 245 244 244 243 244 244 245 245 246 246 245 245 245 245 245 244 243 243 242 242 241
277 279 280 280 281 281 281 280 279 277 276 274 272 269 267 264 261 258 255 253 253 254 255 255 255 254 253 250 248 245 244 243 243 243 244 244 244 245 245 246 247 248 248 248 248 248 247 247 246 246 245 244 244 244 245 245 246 246 245 245 245 245 245 245 245 244 244 243 242
269 271 272 272 273 273 273 273 272 272 272 271 270 269 269 267 265 262 259 257 256 256 257 258 259 258 257 255 253 250 248 246 244 243 242 242 242 242 243 243 245 245 246 246 246 247 247 247 246 246 245 245 244 244 245 245 246 246 246 245 245 245 245 245 245 245 244 243 242
265 264 263 263 263 263 264 264 264 264 264 264 264 265 265 266 266 266 264 262 260 259 259 260 260 260 259 258 257 255 253 250 247 245 243 242 241 241 241 241 242 243 244 244 245 245 246 246 246 245 245 245 245 244 245 245 246 246 245 244 244 244 244 244 245 245 244 243 242
276 272 268 265 264 262 260 259 258 258 257 257 257 258 260 262 264 265 265 264 262 262 261 261 262 262 262 261 260 258 256 254 251 248 246 244 242 241 240 240 241 241 242 243 243 244 244 245 245 245 245 245 245 245 245 245 245 245 245 244 243 243 243 244 244 244 244 243 242
289 286 282 279 275 272 268 266 263 261 259 257 256 255 256 257 259 261 262 262 262 262 262 262 262 262 263 263 262 261 259 256 254 251 249 246 244 242 241 240 240 240 241 242 242 243 244 244 245 245 245 245 245 245 245 245 245 245 244 243 243 242 242 243 243 243 243 242 242
297 294 291 288 285 282 280 277 274 271 268 264 262 259 257 256 256 257 257 258 259 260 261 261 262 262 262 263 262 262 260 258 256 253 251 248 246 244 243 241 240 240 240 241 242 242 243 244 244 244 244 244 245 245 245 245 245 244 244 243 243 242 242 242 242 242 242 242 242
310 305 300 296 293 290 288 286 284 281 278 274 271 268 264 261 259 257 256 255 255 256 257 258 259 260 261 262 262 262 261 260 258 256 253 251 248 247 245 243 241 240 240 240 240 241 242 243 243 243 244 244 244 244 244 245 244 244 244 243 243 242 242 242 242 242 242 243 242
327 320 314 308 303 300 297 294 292 289 287 283 280 276 272 268 265 261 259 257 255 254 254 254 255 257 258 259 260 260 260 259 258 256 255 253 251 249 247 245 243 241 240 239 239 240 241 242 242 243 243 242 242 242 243 243 243 243 243 243 242 242 242 242 243 243 243 243 243
339 334 327 321 315 311 307 302 299 296 293 290 287 283 279 275 272 268 264 261 258 256 254 253 253 254 255 256 257 258 258 258 257 256 254 253 251 250 248 247 244 242 241 239 239 239 239 240 241 241 241 241 241 241 241 242 242 242 242 242 242 242 242 243 243 243 243 243 243
344 340 335 330 325 321 316 311 307 303 300 296 293 289 286 282 279 275 271 267 263 260 257 255 253 253 252 253 254 255 256 256 256 255 254 252 251 250 248 247 246 244 242 241 239 239 238 238 239 239 240 240 240 240 240 240 241 241 242 242 242 242 242 242 243 243 243 243 243
341 339 336 334 331 327 324 320 315 311 307 303 299 295 291 287 284 280 276 272 268 264 260 257 255 253 252 252 252 253 254 254 254 254 253 252 251 249 248 247 246 245 243 242 241 239 238 238 238 238 238 238 239 239 239 240 240 241 241 241 242 242 242 242 242 243 243 244 244
334 332 331 330 329 327 325 323 320 316 313 308 304 299 294 290 287 284 281 277 272 267 263 260 257 255 254 252 252 252 252 254 254 253 252 251 250 249 248 247 246 245 244 242 241 240 239 238 237 237 237 238 238 238 239 239 240 240 241 241 241 242 242 242 242 243 243 244 244
329 327 326 325 325 323 322 320 318 316 313 311 307 303 297 293 288 285 283 280 276 272 268 264 261 258 255 253 252 252 251 252 253 253 252 251 250 248 247 246 245 244 243 242 241 240 239 238 237 237 237 237 238 238 239 239 240 240 240 241 241 241 241 242 242 243 243 244 245
326 325 323 322 321 319 318 316 315 313 312 311 309 305 300 296 291 287 283 281 279 277 274 270 265 261 257 254 253 252 251 251 252 252 252 251 249 248 246 245 243 242 241 240 240 239 239 238 237 237 237 237 238 238 239 239 239 240 240 240 241 241 241 241 241 242 243 243 244
325 323 322 320 319 317 316 315 314 313 312 311 309 307 303 299 294 289 285 282 280 279 277 274 270 265 260 256 253 252 251 251 251 251 251 250 249 247 246 244 242 241 240 239 239 238 238 238 237 237 237 237 237 238 238 239 239 239 240 240 240 240 240 240 240 241 242 242 243
322 322 321 320 318 317 316 315 315 314 313 312 311 309 306 303 299 294 289 284 281 279 278 276 272 268 263 258 254 252 251 250 250 250 250 250 249 247 245 243 242 240 239 238 238 237 237 237 237 237 237 237 237 237 238 238 238 239 239 239 239 239 239 239 239 240 241 241 242
319 320 320 319 318 317 317 317 316 316 315 315 314 313 311 308 304 300 295 289 285 281 278 275 272 269 265 260 256 253 251 250 249 249 249 248 248 246 245 243 241 240 238 237 237 237 237 237 237 237 236 236 236 237 237 237 237 238 238 238 238 238 238 238 239 239 240 241 241
315 317 318 318 318 318 318 318 318 318 319 319 318 317 315 313 310 306 301 296 291 285 279 275 273 270 266 263 259 255 252 250 249 248 247 247 246 245 244 242 241 239 238 237 236 236 236 236 236 236 236 236 236 236 236 237 237 237 237 237 237 237 237 238 238 239 239 240 241
310 313 314 315 317 318 319 319 320 321 321 321 320 318 317 315 313 311 308 304 298 291 285 279 274 271 268 265 262 259 256 252 250 248 247 246 245 244 243 242 240 239 238 237 236 236 236 236 236 237 236 236 235 236 236 236 236 236 237 237 237 237 237 237 238 239 239 240 241
305 307 309 312 314 317 319 320 321 321 321 319 318 316 315 314 313 313 311 309 305 299 292 285 278 272 268 266 264 262 258 255 252 249 247 246 245 244 242 241 240 238 237 237 236 236 236 236 237 237 237 237 236 236 236 236 236 237 237 237 237 237 237 238 238 238 239 240 241
298 300 303 307 310 314 317 319 320 320 318 316 314 313 311 311 311 311 311 311 309 305 299 292 284 276 270 267 265 263 260 257 253 251 249 247 245 244 242 241 240 238 237 237 237 236 236 236 237 238 238 238 237 237 236 236 236 237 237 237 237 238 238 238 238 239 239 240 241
292 295 298 301 305 309 313 317 318 318 316 313 311 309 308 307 308 308 309 310 309 308 304 298 290 282 276 271 267 264 261 259 256 253 251 248 246 245 243 241 240 239 238 237 237 237 237 237 237 238 239 240 239 238 237 237 237 237 237 238 238 238 238 238 239 239 240 240 241
289 291 294 296 299 303 308 312 314 314 313 311 308 307 306 305 306 306 306 306 307 307 305 302 295 288 281 275 270 266 263 260 258 255 253 251 248 246 244 242 240 239 238 237 237 237 237 237 237 238 239 240 240 240 238 237 237 237 237 238 238 238 238 238 239 239 240 241 241
290 291 292 293 296 299 302 306 308 309 309 308 306 306 305 305 305 304 304 304 304 305 305 303 299 293 286 279 274 269 265 261 259 257 255 252 250 247 245 243 241 239 238 237 237 237 237 237 237 238 238 240 241 241 240 238 237 237 237 237 237 237 237 238 238 239 239 240 241
292 292 293 293 295 296 298 300 302 302 303 303 303 304 304 305 305 305 304 304 303 303 303 303 301 296 290 283 277 271 267 263 260 258 256 253 251 249 246 244 241 239 238 237 237 237 237 237 238 238 238 239 240 241 240 239 238 237 237 237 237 237 237 237 238 238 239 240 240
293 294 295 294 295 295 295 295 295 296 296 297 298 300 302 303 304 305 305 305 303 302 301 301 301 298 293 286 279 274 269 266 263 261 259 256 253 250 247 244 242 240 238 237 237 237 237 237 238 238 238 239 240 240 240 240 239 238 237 236 236 236 236 236 237 237 238 239 240
292 294 294 294 294 293 293 292 291 291 291 291 293 296 298 301 302 304 305 305 304 302 301 301 301 299 295 289 282 276 272 269 267 265 262 259 256 252 249 246 243 240 239 237 237 236 236 237 238 239 239 239 240 240 240 240 239 238 237 236 236 236 236 236 236 237 237 238 239
289 291 292 292 292 292 291 291 290 289 288 288 289 291 294 297 299 301 303 304 303 302 302 301 300 299 296 291 285 279 274 271 269 267 264 261 258 254 250 247 244 241 239 238 237 236 236 237 238 239 240 240 239 239 239 240 239 238 237 237 236 236 235 235 235 236 236 237 238
288 288 289 290 290 291 291 291 290 289 288 287 287 288 290 293 295 297 300 301 302 302 302 302 301 300 297 292 286 280 274 270 268 266 265 262 259 255 252 248 244 241 238 237 236 236 236 236 237 238 239 240 239 239 239 239 239 239 238 237 236 236 235 234 234 235 235 236 237
289 288 288 289 289 290 290 290 290 289 288 287 286 285 286 289 291 293 295 297 299 301 302 302 302 300 297 293 286 279 274 270 267 265 264 262 260 257 254 250 245 241 238 236 235 235 235 235 236 238 239 240 239 239 239 239 240 239 238 237 237 236 235 234 234 234 234 235 236
292 290 289 289 289 289 289 289 289 288 288 287 286 285 285 286 288 289 291 293 296 298 301 302 302 300 297 292 285 279 273 269 266 264 263 263 262 260 256 251 246 241 237 234 233 233 233 234 235 236 238 239 239 239 239 239 239 239 239 238 237 236 236 235 234 233 233 234 235
294 292 290 289 289 289 290 290 289 288 287 286 285 284 284 284 284 285 287 289 292 296 299 300 301 300 296 291 285 278 273 269 266 264 263 263 263 261 258 254 248 242 237 233 231 230 231 231 232 234 236 238 239 239 238 238 239 239 238 237 237 236 236 235 235 234 233 233 234